TITAN 3C TRANSTAGE DEB, 43456

Orbit data source: Space-Track

TITAN 3C TRANSTAGE DEB, 43456 is space debris originally from a launch on Sun, 09 Feb 1969 UTC launched from the Air Force Eastern Test Range (AFETR). Debris objects in space refer to the collection of defunct objects orbiting the Earth. Examples of debris include non-operational satellites, rocket bodies, and fragments generated from explosions, collisions, or faulty payload assembly.

Not visible in the next 10 days
TITAN 3C TRANSTAGE DEB details
Identifier
43456, 1969-013P
Orbit
Active
Last TLE update1 day ago
Origin
Flag of USUSAF SMC (US)
ManufacturerMartin Marietta
MissionSpacecraft
Bus & MotorUnknown
MassUnknown
Launch date (UTC)
1969-02-09 (56 years ago)
Launch vehicleUnknown
Launch site
Air Force Eastern Test Range (AFETR)
Object type
Payload
Rocket body
Debris
Shape & HBRUnknown
Radar Cross SectionRCS unknown

Expand to show TLE details & history

TLE from 1 day ago
0 TITAN 3C TRANSTAGE DEB
1 43456U 69013P   24325.43858459 -.00000009  00000-0  00000+0 0  9992
2 43456   1.0190  13.3849 0548490 127.6533 236.3948  1.02765707 25175
Epoch: 2024-11-20T10:31Z
Definitive object data (Epoch: 2024-11-20T10:31:33.708Z)
Latitude
Longitude154.57224°
Altitude36,435.53 km
Speed3.002 km/s
True Right ascension00h 49m 35s
True Declination0° 00' 00"
Sunlit
Object was in daylight at TLE epoch
Visualization TLE readout
Latitude0.12357°
Longitude161.52926°
Altitude36,197.433 km
Speed3.019 km/s
Apparent Right ascension00h 51m 16s
Apparent Declination-5° 17' 08"
Sunlit
Object is in daylight
Visualization observer readout
Local Sidereal Time07:24:41
Azimuth271.29° WNW
Elevation-9.793°
Doppler factor1
Orbital elements
Apogee altitude37,377.911 km
Perigee altitude32,827.543 km
Semi-major axis41,480.864 km
Eccentricity0.054849
Inclination1.019°
RAAN13.3849°
Arg. of periapsis127.6533°
True anomaly231.35812°
Mean anomaly236.3948°
Eccentric anomaly233.85699°
Mean motion0.2569 °/min
BSTARUnknown
Orbital period1401.3 mins
Loading maneuver chart data...

TITAN 3C TRANSTAGE DEB Visibility forecast

Observer location: undefined°, undefined

TITAN 3C TRANSTAGE DEB is not visible in the next 10 days
Span
Click to sort rows by Start time (UTC) header in descending order
Start Az.
Max El. time (UTC)
Max El. Az.
Max El.
End time (UTC)
End Az.
|